Arctic Village, AK

7:05 AM AKDT on September 30, 2016 (GMT -0800)
Arctic Village

Weather History for PARC - January, 2012

Change the Weather History Date:

Sunday, January 15, 2012

  Actual Average Record
Temperature  
Mean Temperature -44 °F -  
Max Temperature -34 °F -14 °F 32 °F (1971)
Min Temperature -54 °F -40 °F -62 °F (1991)
Degree Days  
Heating Degree Days 109    
Moisture  
Dew Point -    
Average Humidity    
Maximum Humidity    
Minimum Humidity    
Precipitation  
Precipitation 0.00 in - - ()
Sea Level Pressure  
Sea Level Pressure 30.63 in    
Wind  
Wind Speed 0 mph (North)    
Max Wind Speed 0 mph    
Max Gust Speed -    
Visibility 3 miles    
Events      
Averages and records for this station are not official NWS values.
T = Trace of Precipitation, MM = Missing Value Source: NWS Daily Summary

Daily Weather History Graph

Daily Weather History Graph

Search for Another Location

Airport or City:

Trip Planner

Search our weather history database for the weather conditions in past years. The results will help you decide how hot, cold, wet, or windy it might be!

Date:

Astronomy

Jan. 15, 2012 Rise Set
Actual Time 11:19 AM AKST 2:25 PM AKST
Civil Twilight 9:37 AM AKST 4:06 PM AKST
Nautical Twilight 8:17 AM AKST 5:27 PM AKST
Astronomical Twilight 7:08 AM AKST 6:35 PM AKST
Moon 1:18 AM AKST (1/15) 10:06 AM AKST (1/15)
Length of Visible Light 6h 29m
Length of Day
3h 06m
Waning Gibbous, 56% of the Moon is Illuminated
Jan 15
Waning Gibbous
Jan 16
Last Quarter
Jan 22
New
Jan 30
First Quarter
Feb 7
Full

Hourly Weather History & Observations

Time (AKST) Temp. Dew Point Humidity Pressure Visibility Wind Dir Wind Speed Gust Speed Precip Events Conditions
12:16 AM -50.8 °F - N/A% 30.59 in 3.0 mi Calm Calm - N/A   Clear
12:36 AM -52.6 °F - N/A% 30.59 in 2.5 mi Calm Calm - N/A   Clear
12:56 AM -50.8 °F - N/A% 30.60 in 4.0 mi Calm Calm - N/A   Clear
1:16 AM -50.8 °F - N/A% 30.61 in 7.0 mi Calm Calm - N/A   Clear
1:36 AM -52.6 °F - N/A% 30.62 in 2.0 mi Calm Calm - N/A   Clear
1:56 AM -50.8 °F - N/A% 30.62 in 1.8 mi Calm Calm - N/A   Clear
2:16 AM - - N/A% 30.61 in 1.8 mi Calm Calm - N/A   Clear
2:36 AM -52.6 °F - N/A% 30.62 in 1.8 mi Calm Calm - N/A   Clear
2:56 AM -52.6 °F - N/A% 30.62 in 1.5 mi Calm Calm - N/A   Clear
3:16 AM -52.6 °F - N/A% 30.62 in 1.8 mi Calm Calm - N/A   Clear
3:36 AM -50.8 °F - N/A% 30.63 in 3.0 mi Calm Calm - N/A   Clear
3:56 AM -45.4 °F - N/A% 30.62 in 1.5 mi Calm Calm - N/A   Clear
4:16 AM -50.8 °F - N/A% 30.62 in 1.2 mi Calm Calm - N/A   Clear
4:36 AM -52.6 °F - N/A% 30.63 in 1.5 mi Calm Calm - N/A   Clear
4:56 AM -52.6 °F - N/A% 30.63 in 1.5 mi Calm Calm - N/A   Clear
5:16 AM -52.6 °F - N/A% 30.63 in 1.2 mi Calm Calm - N/A   Clear
5:36 AM -50.8 °F - N/A% 30.63 in 3.0 mi Calm Calm - N/A   Clear
5:56 AM -50.8 °F - N/A% 30.63 in 2.5 mi Calm Calm - N/A   Clear
6:16 AM -50.8 °F - N/A% 30.63 in 2.5 mi Calm Calm - N/A   Clear
6:36 AM -52.6 °F - N/A% 30.64 in 1.5 mi Calm Calm - N/A   Clear
7:16 AM -54.4 °F - N/A% 30.64 in 1.5 mi Calm Calm - N/A   Clear
7:36 AM -52.6 °F - N/A% 30.64 in 1.0 mi Calm Calm - N/A   Clear
7:56 AM -49.0 °F - N/A% 30.64 in 1.5 mi Calm Calm - N/A   Clear
8:16 AM -50.8 °F - N/A% 30.64 in 1.2 mi Calm Calm - N/A   Clear
8:36 AM -47.2 °F - N/A% 30.64 in 4.0 mi Calm Calm - N/A   Clear
8:56 AM -50.8 °F - N/A% 30.65 in 2.0 mi Calm Calm - N/A   Clear
9:16 AM -50.8 °F - N/A% 30.65 in 5.0 mi Calm Calm - N/A   Clear
9:36 AM -50.8 °F - N/A% 30.65 in 2.0 mi Calm Calm - N/A   Clear
9:56 AM -47.2 °F - N/A% 30.65 in 1.2 mi Calm Calm - N/A   Clear
10:16 AM -45.4 °F - N/A% 30.65 in 1.2 mi Calm Calm - N/A   Clear
10:36 AM -43.6 °F - N/A% 30.65 in 5.0 mi Calm Calm - N/A   Clear
10:56 AM -43.6 °F - N/A% 30.65 in 1.0 mi Calm Calm - N/A   Clear
11:16 AM -43.6 °F - N/A% 30.65 in 1.0 mi Calm Calm - N/A   Clear
11:36 AM -43.6 °F - N/A% 30.65 in 1.0 mi Calm Calm - N/A   Clear
11:56 AM -43.6 °F - N/A% 30.64 in 1.2 mi Calm Calm - N/A   Scattered Clouds
12:16 PM -41.8 °F - N/A% 30.64 in 1.0 mi Calm Calm - N/A   Mostly Cloudy
12:36 PM -40.0 °F - N/A% 30.64 in 1.0 mi Calm Calm - N/A   Mostly Cloudy
12:56 PM - - N/A% 30.63 in 3.0 mi Calm Calm - N/A   Partly Cloudy
1:16 PM -38.2 °F - N/A% 30.64 in 1.0 mi Calm Calm - N/A   Clear
1:36 PM - - N/A% 30.63 in 2.0 mi Calm Calm - N/A   Clear
1:56 PM -38.2 °F - N/A% 30.63 in 2.0 mi Calm Calm - N/A   Clear
2:16 PM - - N/A% 30.63 in 3.0 mi Calm Calm - N/A   Clear
2:36 PM -36.4 °F - N/A% 30.63 in 1.8 mi Calm Calm - N/A   Clear
2:56 PM -36.4 °F - N/A% 30.62 in 1.8 mi Calm Calm - N/A   Clear
3:16 PM - - N/A% 30.62 in 1.5 mi Calm Calm - N/A   Clear
3:36 PM -36.4 °F - N/A% 30.62 in 3.0 mi Calm Calm - N/A   Clear
3:56 PM -36.4 °F - N/A% 30.62 in 5.0 mi Calm Calm - N/A   Clear
4:16 PM -36.4 °F - N/A% 30.62 in 10.0 mi Calm Calm - N/A   Clear
4:36 PM - - N/A% 30.61 in 10.0 mi Calm Calm - N/A   Clear
4:56 PM -36.4 °F - N/A% 30.61 in 5.0 mi Calm Calm - N/A   Clear
5:16 PM -36.4 °F - N/A% 30.61 in 5.0 mi Calm Calm - N/A   Clear
5:36 PM -34.6 °F - N/A% 30.61 in 10.0 mi Calm Calm - N/A   Clear
5:56 PM -34.6 °F - N/A% 30.61 in 9.0 mi Calm Calm - N/A   Clear
6:16 PM -34.6 °F - N/A% 30.61 in 10.0 mi Calm Calm - N/A   Clear
6:36 PM -34.6 °F - N/A% 30.62 in 10.0 mi Calm Calm - N/A   Clear
6:56 PM -32.8 °F - N/A% 30.61 in 10.0 mi Calm Calm - N/A   Clear
7:16 PM -32.8 °F - N/A% 30.61 in 10.0 mi Calm Calm - N/A   Clear
7:36 PM -32.8 °F - N/A% 30.61 in 10.0 mi Calm Calm - N/A   Clear
8:16 PM -32.8 °F - N/A% 30.61 in 10.0 mi Calm Calm - N/A   Clear
8:36 PM -32.8 °F - N/A% 30.61 in 10.0 mi Calm Calm - N/A   Clear
8:56 PM -32.8 °F - N/A% 30.61 in 8.0 mi Calm Calm - N/A   Clear
9:16 PM -32.8 °F - N/A% 30.61 in 7.0 mi Calm Calm - N/A   Clear
9:36 PM -34.6 °F - N/A% 30.61 in 9.0 mi Calm Calm - N/A   Clear
9:56 PM -34.6 °F - N/A% 30.61 in 7.0 mi Calm Calm - N/A   Clear
10:16 PM -32.8 °F - N/A% 30.61 in 4.0 mi Calm Calm - N/A   Clear
10:36 PM -36.4 °F - N/A% 30.62 in 7.0 mi Calm Calm - N/A   Clear
10:56 PM -34.6 °F - N/A% 30.62 in 10.0 mi Calm Calm - N/A   Clear
11:16 PM - - N/A% 30.62 in 10.0 mi Calm Calm - N/A   Clear
11:36 PM -34.6 °F - N/A% 30.62 in 10.0 mi Calm Calm - N/A   Clear
11:56 PM -38.2 °F - N/A% 30.63 in 9.0 mi Calm Calm - N/A   Clear